Location: Arthez
(43.0833°N, 0.2500°W)
Time: 00:18:38
(UTC+00:00)

Cosmos 1892 - Pass Details

Date: 23 October 2021
Orbit: 501 x 522 km, 82.5° (Epoch: 06 December)

Event Time Altitude Azimuth Distance (km) Brightness Sun altitude
Rises 19:02:16 0° 350° (N) 2,615 6.5 -22.0°
Reaches altitude 10° 19:04:24 10° 349° (N) 1,723 5.5 -22.4°
Enters shadow 19:07:55 73° 311° (NW) 531 2.7 -23.0°
